Time,TemperatureF,DewpointF,PressureIn,WindDirection,WindDirectionDegrees,WindSpeedMPH,WindSpeedGustMPH,Humidity,HourlyPrecipIn,Conditions,Clouds,dailyrainin,SoftwareType,DateUTC
2013-01-26 00:10:00,34.4,28.3,30.10,West,261,2.0,10.0,78,0.00,,,0.00,VWS V12.07,2013-01-26 05:10:00,
2013-01-26 00:29:00,33.8,28.0,30.10,SW,235,0.0,11.0,79,0.00,,,0.00,VWS V12.07,2013-01-26 05:29:00,
2013-01-26 00:40:00,32.7,28.1,30.11,WSW,240,3.0,7.0,83,0.00,,,0.00,VWS V12.07,2013-01-26 05:40:00,
2013-01-26 00:59:00,32.5,28.2,30.10,West,260,2.0,9.0,84,0.00,,,0.00,VWS V12.07,2013-01-26 05:59:00,
2013-01-26 01:10:00,32.4,28.4,30.11,WSW,240,4.0,15.0,85,0.00,,,0.00,VWS V12.07,2013-01-26 06:10:00,
2013-01-26 01:29:00,32.2,28.5,30.10,WSW,239,8.0,14.0,86,0.00,,,0.00,VWS V12.07,2013-01-26 06:29:00,
2013-01-26 01:40:00,31.6,27.9,30.10,WSW,244,1.0,5.0,86,0.00,,,0.00,VWS V12.07,2013-01-26 06:40:00,
2013-01-26 01:59:00,31.3,27.6,30.11,WSW,256,8.0,9.0,86,0.00,,,0.00,VWS V12.07,2013-01-26 06:59:00,
2013-01-26 02:10:00,30.6,26.9,30.12,SSW,208,0.0,3.0,86,0.00,,,0.00,VWS V12.07,2013-01-26 07:10:00,
2013-01-26 02:29:00,30.0,26.3,30.11,SSW,208,0.0,0.0,86,0.00,,,0.00,VWS V12.07,2013-01-26 07:29:00,
2013-01-26 02:40:00,28.8,25.7,30.12,SSW,208,0.0,0.0,88,0.00,,,0.00,VWS V12.07,2013-01-26 07:40:00,
2013-01-26 02:59:00,29.0,26.2,30.12,SW,229,0.0,5.0,89,0.00,,,0.00,VWS V12.07,2013-01-26 07:59:00,
2013-01-26 03:10:00,29.8,24.7,30.12,West,273,0.0,10.0,81,0.00,,,0.00,VWS V12.07,2013-01-26 08:10:00,
2013-01-26 03:29:00,29.7,24.6,30.10,West,265,5.0,5.0,81,0.00,,,0.00,VWS V12.07,2013-01-26 08:29:00,
2013-01-26 03:40:00,29.7,24.6,30.10,SW,220,0.0,7.0,81,0.00,,,0.00,VWS V12.07,2013-01-26 08:40:00,
2013-01-26 03:59:00,30.4,23.1,30.10,WSW,258,6.0,12.0,74,0.00,,,0.00,VWS V12.07,2013-01-26 08:59:00,
2013-01-26 04:10:00,30.4,21.8,30.10,WSW,251,0.0,6.0,70,0.00,,,0.00,VWS V12.07,2013-01-26 09:10:00,
2013-01-26 04:29:00,30.1,21.5,30.09,WNW,286,7.0,9.0,70,0.00,,,0.00,VWS V12.07,2013-01-26 09:29:00,
2013-01-26 04:40:00,29.7,22.4,30.09,WSW,253,0.0,7.0,74,0.00,,,0.00,VWS V12.07,2013-01-26 09:40:00,
2013-01-26 04:59:00,29.4,22.8,30.09,West,280,2.0,9.0,76,0.00,,,0.00,VWS V12.07,2013-01-26 09:59:00,
2013-01-26 05:10:00,29.3,21.4,30.09,WNW,288,3.0,14.0,72,0.00,,,0.00,VWS V12.07,2013-01-26 10:10:00,
2013-01-26 05:29:00,29.5,20.3,30.05,WNW,287,5.0,15.0,68,0.00,,,0.00,VWS V12.07,2013-01-26 10:29:00,
2013-01-26 05:40:00,30.1,19.4,30.04,NW,308,12.0,19.0,64,0.00,,,0.00,VWS V12.07,2013-01-26 10:40:00,
2013-01-26 05:59:00,30.1,19.8,30.04,NW,305,5.0,20.0,65,0.00,,,0.00,VWS V12.07,2013-01-26 10:59:00,
2013-01-26 06:10:00,29.5,19.9,30.04,WNW,282,6.0,20.0,67,0.00,,,0.00,VWS V12.07,2013-01-26 11:10:00,
2013-01-26 06:29:00,29.3,20.1,30.05,WSW,251,14.0,18.0,68,0.00,,,0.00,VWS V12.07,2013-01-26 11:29:00,
2013-01-26 06:40:00,29.1,19.5,30.06,WNW,285,9.0,23.0,67,0.00,,,0.00,VWS V12.07,2013-01-26 11:40:00,
2013-01-26 06:59:00,28.7,19.8,30.07,West,277,7.0,16.0,69,0.00,,,0.00,VWS V12.07,2013-01-26 11:59:00,
2013-01-26 07:10:00,29.1,19.2,30.08,NW,310,11.0,16.0,66,0.00,,,0.00,VWS V12.07,2013-01-26 12:10:00,
2013-01-26 07:29:00,29.0,18.7,30.09,WSW,257,7.0,22.0,65,0.00,,,0.00,VWS V12.07,2013-01-26 12:29:00,
2013-01-26 07:40:00,29.3,17.9,30.09,WSW,243,8.0,22.0,62,0.00,,,0.00,VWS V12.07,2013-01-26 12:40:00,
2013-01-26 07:59:00,29.5,17.7,30.08,West,275,16.0,19.0,61,0.00,,,0.00,VWS V12.07,2013-01-26 12:59:00,
2013-01-26 08:10:00,30.1,16.7,30.08,West,281,8.0,17.0,57,0.00,,,0.00,VWS V12.07,2013-01-26 13:10:00,
2013-01-26 08:29:00,30.7,16.0,30.09,West,279,9.0,22.0,54,0.00,,,0.00,VWS V12.07,2013-01-26 13:29:00,
2013-01-26 08:40:00,32.1,14.2,30.09,WSW,241,14.0,21.0,47,0.00,,,0.00,VWS V12.07,2013-01-26 13:40:00,
2013-01-26 08:59:00,32.5,14.0,30.09,West,274,6.0,22.0,46,0.00,,,0.00,VWS V12.07,2013-01-26 13:59:00,
2013-01-26 09:10:00,32.4,14.9,30.10,WNW,296,11.0,19.0,48,0.00,,,0.00,VWS V12.07,2013-01-26 14:10:00,
2013-01-26 09:29:00,32.2,14.7,30.11,WNW,301,7.0,17.0,48,0.00,,,0.00,VWS V12.07,2013-01-26 14:29:00,
2013-01-26 09:40:00,32.4,14.4,30.12,WNW,290,8.0,21.0,47,0.00,,,0.00,VWS V12.07,2013-01-26 14:40:00,
2013-01-26 09:59:00,32.9,14.4,30.13,West,275,9.0,14.0,46,0.00,,,0.00,VWS V12.07,2013-01-26 14:59:00,
2013-01-26 10:10:00,34.3,13.6,30.14,West,261,23.0,23.0,42,0.00,,,0.00,VWS V12.07,2013-01-26 15:10:00,
2013-01-26 10:29:00,34.7,15.0,30.14,SW,235,7.0,23.0,44,0.00,,,0.00,VWS V12.07,2013-01-26 15:29:00,
2013-01-26 10:40:00,34.7,13.4,30.16,West,262,2.0,11.0,41,0.00,,,0.00,VWS V12.07,2013-01-26 15:40:00,
2013-01-26 10:59:00,35.0,14.2,30.15,WSW,245,4.0,15.0,42,0.00,,,0.00,VWS V12.07,2013-01-26 15:59:00,
2013-01-26 11:10:00,35.9,16.1,30.16,East,96,1.0,6.0,44,0.00,,,0.00,VWS V12.07,2013-01-26 16:10:00,
2013-01-26 11:29:00,35.8,16.5,30.17,ESE,107,3.0,8.0,45,0.00,,,0.00,VWS V12.07,2013-01-26 16:29:00,
2013-01-26 11:40:00,37.2,13.9,30.17,North,349,3.0,13.0,38,0.00,,,0.00,VWS V12.07,2013-01-26 16:40:00,
2013-01-26 11:59:00,37.6,14.3,30.17,NNE,26,3.0,23.0,38,0.00,,,0.00,VWS V12.07,2013-01-26 16:59:00,
2013-01-26 12:10:00,36.2,13.6,30.17,NW,304,3.0,12.0,39,0.00,,,0.00,VWS V12.07,2013-01-26 17:10:00,
2013-01-26 12:29:00,35.8,15.5,30.18,West,259,9.0,13.0,43,0.00,,,0.00,VWS V12.07,2013-01-26 17:29:00,
2013-01-26 12:40:00,34.3,18.5,30.18,NNE,32,0.0,6.0,52,0.00,,,0.00,VWS V12.07,2013-01-26 17:40:00,
2013-01-26 12:59:00,33.8,18.9,30.17,NNE,32,0.0,4.0,54,0.00,,,0.00,VWS V12.07,2013-01-26 17:59:00,
2013-01-26 13:10:00,35.9,18.1,30.17,West,271,2.0,7.0,48,0.00,,,0.00,VWS V12.07,2013-01-26 18:10:00,
2013-01-26 13:29:00,35.3,18.1,30.17,West,267,4.0,10.0,49,0.00,,,0.00,VWS V12.07,2013-01-26 18:29:00,
2013-01-26 13:40:00,35.8,18.0,30.17,West,268,0.0,7.0,48,0.00,,,0.00,VWS V12.07,2013-01-26 18:40:00,
2013-01-26 13:59:00,36.2,17.9,30.17,West,279,2.0,7.0,47,0.00,,,0.00,VWS V12.07,2013-01-26 18:59:00,
2013-01-26 14:10:00,37.9,19.5,30.16,West,271,0.0,9.0,47,0.00,,,0.00,VWS V12.07,2013-01-26 19:10:00,
2013-01-26 14:29:00,37.8,21.3,30.16,NE,35,3.0,7.0,51,0.00,,,0.00,VWS V12.07,2013-01-26 19:29:00,
2013-01-26 14:40:00,37.9,20.0,30.17,WNW,282,0.0,9.0,48,0.01,,,0.01,VWS V12.07,2013-01-26 19:40:00,
2013-01-26 14:59:00,38.2,19.8,30.17,WNW,290,4.0,12.0,47,0.05,,,0.05,VWS V12.07,2013-01-26 19:59:00,
2013-01-26 15:10:00,39.3,20.8,30.17,NNE,24,0.0,8.0,47,0.07,,,0.07,VWS V12.07,2013-01-26 20:10:00,
2013-01-26 15:29:00,39.1,22.0,30.16,NNE,32,4.0,9.0,50,0.07,,,0.07,VWS V12.07,2013-01-26 20:29:00,
2013-01-26 15:40:00,38.0,22.0,30.17,NE,38,5.0,8.0,52,0.07,,,0.07,VWS V12.07,2013-01-26 20:40:00,
2013-01-26 15:59:00,39.1,20.6,30.17,WSW,250,7.0,10.0,47,0.07,,,0.08,VWS V12.07,2013-01-26 20:59:00,
2013-01-26 16:10:00,38.2,23.5,30.17,NNE,24,0.0,10.0,55,0.06,,,0.12,VWS V12.07,2013-01-26 21:10:00,
2013-01-26 16:29:00,37.9,21.9,30.19,WNW,283,2.0,5.0,52,0.06,,,0.13,VWS V12.07,2013-01-26 21:29:00,
2013-01-26 16:40:00,36.2,24.1,30.19,NE,41,0.0,11.0,61,0.07,,,0.14,VWS V12.07,2013-01-26 21:40:00,
2013-01-26 16:59:00,35.2,24.6,30.21,NNE,31,1.0,11.0,65,0.07,,,0.14,VWS V12.07,2013-01-26 21:59:00,
2013-01-26 17:10:00,34.1,24.7,30.22,NNE,22,0.0,7.0,68,0.03,,,0.14,VWS V12.07,2013-01-26 22:10:00,
2013-01-26 17:29:00,33.5,24.8,30.23,NNE,29,4.0,11.0,70,0.02,,,0.14,VWS V12.07,2013-01-26 22:29:00,
2013-01-26 17:40:00,32.2,24.9,30.24,NE,40,6.0,8.0,74,0.01,,,0.14,VWS V12.07,2013-01-26 22:40:00,
2013-01-26 17:59:00,31.5,24.8,30.24,NE,37,0.0,9.0,76,0.00,,,0.14,VWS V12.07,2013-01-26 22:59:00,
2013-01-26 18:10:00,30.4,24.7,30.25,NE,42,0.0,7.0,79,0.00,,,0.14,VWS V12.07,2013-01-26 23:10:00,
2013-01-26 18:29:00,30.1,24.7,30.26,NE,49,0.0,9.0,80,0.00,,,0.14,VWS V12.07,2013-01-26 23:29:00,
2013-01-26 18:40:00,29.7,24.6,30.27,NE,45,0.0,7.0,81,0.00,,,0.14,VWS V12.07,2013-01-26 23:40:00,
2013-01-26 18:59:00,29.3,24.5,30.28,NE,44,1.0,5.0,82,0.00,,,0.14,VWS V12.07,2013-01-26 23:59:00,
2013-01-26 19:10:00,29.0,24.5,30.28,NNE,28,0.0,4.0,83,0.00,,,0.14,VWS V12.07,2013-01-27 00:10:00,
2013-01-26 19:29:00,28.8,24.6,30.29,NNW,336,1.0,5.0,84,0.00,,,0.14,VWS V12.07,2013-01-27 00:29:00,
2013-01-26 19:40:00,28.4,24.2,30.29,NNW,336,0.0,0.0,84,0.00,,,0.14,VWS V12.07,2013-01-27 00:40:00,
2013-01-26 19:59:00,28.1,23.9,30.30,NNW,336,0.0,1.0,84,0.00,,,0.14,VWS V12.07,2013-01-27 00:59:00,
2013-01-26 20:10:00,27.3,23.4,30.30,NNW,336,0.0,3.0,85,0.00,,,0.14,VWS V12.07,2013-01-27 01:10:00,
2013-01-26 20:29:00,26.9,23.0,30.29,NNW,336,0.0,0.0,85,0.00,,,0.14,VWS V12.07,2013-01-27 01:29:00,
2013-01-26 20:40:00,26.3,23.0,30.29,NNW,336,0.0,0.0,87,0.00,,,0.14,VWS V12.07,2013-01-27 01:40:00,
2013-01-26 20:59:00,26.0,22.7,30.31,NNW,336,0.0,0.0,87,0.00,,,0.14,VWS V12.07,2013-01-27 01:59:00,
2013-01-26 21:10:00,26.0,22.9,30.31,NNW,336,0.0,3.0,88,0.00,,,0.14,VWS V12.07,2013-01-27 02:10:00,
2013-01-26 21:29:00,25.8,22.7,30.30,NNW,336,0.0,0.0,88,0.00,,,0.14,VWS V12.07,2013-01-27 02:29:00,
2013-01-26 21:40:00,25.0,21.7,30.32,NNW,336,0.0,0.0,87,0.00,,,0.14,VWS V12.07,2013-01-27 02:40:00,
2013-01-26 21:59:00,24.8,21.8,30.33,NNW,336,0.0,0.0,88,0.00,,,0.14,VWS V12.07,2013-01-27 02:59:00,
2013-01-26 22:10:00,24.4,21.6,30.32,NNW,336,0.0,0.0,89,0.00,,,0.14,VWS V12.07,2013-01-27 03:10:00,
2013-01-26 22:29:00,24.2,21.4,30.32,NNW,336,0.0,0.0,89,0.00,,,0.14,VWS V12.07,2013-01-27 03:29:00,
2013-01-26 22:40:00,23.6,21.1,30.32,NNW,336,0.0,0.0,90,0.00,,,0.14,VWS V12.07,2013-01-27 03:40:00,
2013-01-26 22:59:00,23.6,21.1,30.33,NNW,336,0.0,0.0,90,0.00,,,0.14,VWS V12.07,2013-01-27 03:59:00,
2013-01-26 23:10:00,23.0,20.5,30.34,NNW,336,0.0,0.0,90,0.00,,,0.14,VWS V12.07,2013-01-27 04:10:00,
2013-01-26 23:29:00,22.9,20.4,30.33,NNW,336,0.0,0.0,90,0.00,,,0.14,VWS V12.07,2013-01-27 04:29:00,
2013-01-26 23:40:00,22.4,19.9,30.34,NNW,336,0.0,0.0,90,0.00,,,0.14,VWS V12.07,2013-01-27 04:40:00,
2013-01-26 23:59:00,22.1,19.6,30.35,NNW,336,0.0,0.0,90,0.00,,,0.14,VWS V12.07,2013-01-27 04:59:00,